Location: Home
(42.5358°N, 72.7383°W)
Time: 00:53:17
(UTC-05:00)

Vanguard 1 Rocket - Pass Details

Date: 06 December 2021
Orbit: 651 x 4224 km, 34.3° (Epoch: 23 January)

Event Time Altitude Azimuth Distance (km) Brightness Sun altitude
Exits shadow 03:28:03 58° 205° (SSW) 2,693 9.4 -39.4°
Maximum altitude 03:30:08 63° 173° (S) 2,796 9.6 -39.0°
Drops below altitude 10° 03:51:07 10° 100° (E) 7,017 12.7 -35.2°
Sets 03:57:23 0° 98° (E) 8,315 13.3 -34.0°
